Date String (YYYY-MM-DD hh:mm:ss) UTC,Instrument flags,absolute air pressure of the measurement (hPa),sample flow rate (lpm),inlet stack bypass flow (lpm),air temperature of the measurement (°C),ambient temperature measured by the external sensor (°C),aerosol sample conditioner tube jacket temperature (°C),OPC LED temperature (°C),internal box temperature (°C),relative humidity of the measurement (%),span deviation,mass concentration of particles derived from Lorenz-Mie calculation of OPC scattering (μg/m³),mass concentration of particles derived from Lorenz-Mie calculation of OPC scattering (μg/m³),mass concentration of particles derived from Lorenz-Mie calculation of OPC scattering (μg/m³)
DateTimeUTC,F1_M11,P_M11,Q1_M11,Q2_M11,T1_M11,T2_M11,T3_M11,T4_M11,T5_M11,U1_M11,ZSPAN_M11,X0_M11,X2_M11,X1_M11
2023-09-05 08:00:00,SystemResetWarning,0827.2,5.00,000.00,028.2,027.0,000.0,036.6,029.8,18.6,0000.0,0004.43,0001.08,0000.73
2023-09-05 08:01:00,SystemResetWarning,0827.3,5.00,000.00,028.2,027.0,000.0,036.6,029.8,18.3,0000.0,0005.76,0001.15,0000.73
2023-09-05 08:02:00,SystemResetWarning,0827.3,4.99,000.00,028.2,027.0,000.0,036.6,029.8,18.7,0000.0,0006.67,0001.14,0000.74
2023-09-05 08:03:00,SystemResetWarning,0827.2,5.00,000.00,028.3,027.0,000.0,036.6,029.8,18.2,0000.0,0006.81,0001.17,0000.74
2023-09-05 08:04:00,SystemResetWarning,0827.1,5.00,000.00,028.3,027.0,000.0,036.6,029.9,17.8,0000.0,0005.61,0001.16,0000.74
2023-09-05 08:05:00,SystemResetWarning,0827.2,4.99,000.00,028.3,027.0,000.0,036.6,029.9,17.6,0000.0,0005.22,0001.16,0000.73
2023-09-05 08:06:00,SystemResetWarning,0827.3,5.00,000.00,028.3,027.0,000.0,036.6,029.9,17.5,0000.0,0005.27,0001.19,0000.73
2023-09-05 08:07:00,SystemResetWarning,0827.4,5.01,000.00,028.3,027.1,000.0,036.6,029.9,19.2,0000.0,0005.21,0001.18,0000.74
2023-09-05 08:08:00,SystemResetWarning,0827.3,5.01,000.00,028.4,027.1,000.0,036.7,030.0,19.2,0000.0,0005.18,0001.17,0000.75
2023-09-05 08:09:00,SystemResetWarning,0827.4,4.99,000.00,028.4,027.2,000.0,036.7,030.0,19.9,0000.0,0005.09,0001.15,0000.76
2023-09-05 08:10:00,SystemResetWarning,0827.4,5.00,000.00,028.4,027.2,000.0,036.7,030.0,20.5,0000.0,0004.95,0001.15,0000.76
2023-09-05 08:11:00,SystemResetWarning,0827.4,4.99,000.00,028.4,027.3,000.0,036.7,030.0,19.8,0000.0,0004.21,0001.16,0000.76
2023-09-05 08:12:00,SystemResetWarning,0827.3,5.01,000.00,028.5,027.3,000.0,036.7,030.1,18.9,0000.0,0002.88,0001.10,0000.77
2023-09-05 08:13:00,SystemResetWarning,0827.4,5.00,000.00,028.5,026.9,000.0,036.7,030.0,18.7,0000.0,0001.89,0001.11,0000.77
2023-09-05 08:14:00,SystemResetWarning,0827.4,4.98,000.00,028.4,025.2,000.0,036.7,029.5,18.9,0000.0,0001.79,0001.11,0000.78
2023-09-05 08:15:00,SystemResetWarning,0827.4,5.02,000.00,028.2,024.4,000.0,036.6,029.3,19.4,0000.0,0001.92,0001.16,0000.78
2023-09-05 08:16:00,SystemResetWarning,0827.4,5.00,000.00,028.1,024.5,000.0,036.5,029.1,19.7,0000.0,0001.88,0001.15,0000.79
2023-09-05 08:17:00,SystemResetWarning,0827.4,4.99,000.00,028.0,024.8,000.0,036.5,029.2,20.2,0000.0,0001.96,0001.15,0000.79
2023-09-05 08:18:00,SystemResetWarning,0827.3,5.00,000.00,028.0,025.1,000.0,036.5,029.2,19.7,0000.0,0002.07,0001.17,0000.80
2023-09-05 08:19:00,SystemResetWarning,0827.3,5.00,000.00,028.0,025.5,000.0,036.5,029.3,18.7,0000.0,0002.22,0001.24,0000.79
2023-09-05 08:20:00,SystemResetWarning,0827.4,4.99,000.00,028.0,025.8,000.0,036.5,029.4,18.5,0000.0,0002.28,0001.28,0000.79
2023-09-05 08:21:00,SystemResetWarning,0827.4,5.00,000.00,028.0,026.0,000.0,036.5,029.4,18.5,0000.0,0002.35,0001.31,0000.80
2023-09-05 08:22:00,SystemResetWarning,0827.4,5.00,000.00,028.0,026.2,000.0,036.5,029.5,18.4,0000.0,0002.43,0001.35,0000.81
2023-09-05 08:23:00,SystemResetWarning,0827.4,5.00,000.00,028.0,026.4,000.0,036.5,029.5,18.2,0000.0,0002.53,0001.38,0000.82
2023-09-05 08:24:00,SystemResetWarning,0827.4,5.00,000.00,028.0,026.5,000.0,036.5,029.6,17.7,0000.0,0002.57,0001.41,0000.82
2023-09-05 08:25:00,SystemResetWarning,0827.4,4.99,000.00,028.1,026.6,000.0,036.5,029.6,18.3,0000.0,0002.63,0001.43,0000.83
2023-09-05 08:26:00,SystemResetWarning,0827.4,4.99,000.00,028.1,026.7,000.0,036.5,029.7,18.4,0000.0,0003.30,0001.45,0000.83
2023-09-05 08:27:00,SystemResetWarning,0827.4,5.00,000.00,028.1,026.8,000.0,036.5,029.7,18.1,0000.0,0003.54,0001.49,0000.84
2023-09-05 08:28:00,SystemResetWarning,0827.5,4.99,000.00,028.1,026.9,000.0,036.5,029.7,18.0,0000.0,0003.54,0001.49,0000.85
2023-09-05 08:29:00,SystemResetWarning,0827.7,5.00,000.00,028.2,027.0,000.0,036.5,029.8,17.8,0000.0,0003.50,0001.51,0000.85
2023-09-05 08:30:00,SystemResetWarning,0827.6,5.01,000.00,028.2,027.0,000.0,036.6,029.8,17.4,0000.0,0003.53,0001.52,0000.86
2023-09-05 08:31:00,SystemResetWarning,0827.6,5.01,000.00,028.2,027.1,000.0,036.6,029.9,17.3,0000.0,0003.60,0001.50,0000.88
2023-09-05 08:32:00,SystemResetWarning,0827.6,4.99,000.00,028.3,027.1,000.0,036.6,029.9,17.6,0000.0,0003.67,0001.51,0000.88
2023-09-05 08:33:00,SystemResetWarning,0827.6,5.00,000.00,028.3,027.1,000.0,036.6,029.8,18.1,0000.0,0003.90,0001.52,0000.88
2023-09-05 08:34:00,SystemResetWarning,0827.6,4.99,000.00,028.3,027.2,000.0,036.6,029.9,17.9,0000.0,0003.91,0001.47,0000.88
2023-09-05 08:35:00,SystemResetWarning,0827.5,5.01,000.00,028.3,027.2,000.0,036.6,030.0,17.7,0000.0,0003.87,0001.46,0000.87
2023-09-05 08:36:00,SystemResetWarning,0827.6,5.01,000.00,028.4,027.2,000.0,036.7,030.0,17.9,0000.0,0003.99,0001.48,0000.88
2023-09-05 08:37:00,SystemResetWarning,0827.5,5.00,000.00,028.4,027.2,000.0,036.7,030.0,18.1,0000.0,0003.47,0001.45,0000.89
2023-09-05 08:38:00,SystemResetWarning,0827.6,5.00,000.00,028.4,027.3,000.0,036.7,030.1,18.3,0000.0,0003.19,0001.47,0000.88
2023-09-05 08:39:00,SystemResetWarning,0827.7,4.99,000.00,028.4,027.3,000.0,036.7,030.1,18.5,0000.0,0003.31,0001.52,0000.89
2023-09-05 08:40:00,SystemResetWarning,0827.7,4.99,000.00,028.5,027.4,000.0,036.7,030.1,19.3,0000.0,0003.18,0001.48,0000.89
2023-09-05 08:41:00,SystemResetWarning,0827.7,5.00,000.00,028.5,027.4,000.0,036.8,030.2,20.5,0000.0,0003.78,0001.41,0000.88
2023-09-05 08:42:00,SystemResetWarning,0827.7,5.00,000.00,028.5,027.4,000.0,036.8,030.2,21.1,0000.0,0004.25,0001.42,0000.87
2023-09-05 08:43:00,SystemResetWarning,0827.8,5.00,000.00,028.5,027.4,000.0,036.8,030.2,21.1,0000.0,0004.22,0001.41,0000.87
2023-09-05 08:44:00,SystemResetWarning,0827.7,5.00,000.00,028.6,027.5,000.0,036.8,030.2,21.1,0000.0,0005.06,0001.41,0000.87
2023-09-05 08:45:00,SystemResetWarning,0827.7,5.00,000.00,028.6,027.5,000.0,036.8,030.3,21.3,0000.0,0005.03,0001.41,0000.87
2023-09-05 08:46:00,SystemResetWarning,0827.7,4.99,000.00,028.6,027.2,000.0,036.8,030.2,20.6,0000.0,0005.00,0001.40,0000.87
2023-09-05 08:47:00,SystemResetWarning,0827.7,4.99,000.00,028.5,025.4,000.0,036.8,029.6,20.8,0000.0,0004.87,0001.37,0000.87
2023-09-05 08:48:00,SystemResetWarning,0827.6,5.00,000.00,028.4,024.5,000.0,036.7,029.4,20.9,0000.0,0004.85,0001.37,0000.86
2023-09-05 08:49:00,SystemResetWarning,0827.6,5.01,000.00,028.2,024.5,000.0,036.7,029.2,20.0,0000.0,0005.00,0001.33,0000.87
2023-09-05 08:50:00,SystemResetWarning,0827.7,5.01,000.00,028.1,024.8,000.0,036.7,029.3,20.9,0000.0,0005.01,0001.27,0000.87
2023-09-05 08:51:00,SystemResetWarning,0827.7,4.99,000.00,028.1,025.2,000.0,036.6,029.4,20.5,0000.0,0004.98,0001.26,0000.86
2023-09-05 08:52:00,SystemResetWarning,0827.7,5.00,000.00,028.1,025.5,000.0,036.6,029.5,21.1,0000.0,0005.03,0001.27,0000.87
2023-09-05 08:53:00,SystemResetWarning,0827.7,5.00,000.00,028.1,025.8,000.0,036.6,029.5,21.8,0000.0,0004.68,0001.27,0000.87
2023-09-05 08:54:00,SystemResetWarning,0827.7,5.01,000.00,028.1,026.1,000.0,036.6,029.6,21.7,0000.0,0004.63,0001.24,0000.87
2023-09-05 08:55:00,SystemResetWarning,0827.6,5.00,000.00,028.1,026.3,000.0,036.6,029.6,20.2,0000.0,0003.89,0001.22,0000.86
2023-09-05 08:56:00,SystemResetWarning,0827.7,4.99,000.00,028.1,026.5,000.0,036.6,029.7,18.4,0000.0,0003.40,0001.20,0000.86
2023-09-05 08:57:00,SystemResetWarning,0827.7,4.99,000.00,028.2,026.6,000.0,036.6,029.7,18.8,0000.0,0003.41,0001.20,0000.86
2023-09-05 08:58:00,SystemResetWarning,0827.7,5.00,000.00,028.2,026.7,000.0,036.6,029.8,18.4,0000.0,0003.43,0001.20,0000.87
2023-09-05 08:59:00,SystemResetWarning,0827.8,5.00,000.00,028.2,026.8,000.0,036.6,029.8,18.4,0000.0,0003.58,0001.19,0000.86
